Radiation Dose at Monitoring Post of Fukushima Daini Nuclear Power Station
Date,Time,MP-1(microSv/h),MP-2(microSv/h),MP-3(microSv/h),MP-4(microSv/h),MP-5(microSv/h),MP-6(microSv/h),MP-7(microSv/h),Wind Direction,Wind Velocity(m/s),Rain
2020/08/13,00:00,0.178,0.162,0.269,0.256,0.251,0.140,0.085,west-southwest,2.1,No
2020/08/13,00:10,0.180,0.162,0.266,0.254,0.248,0.139,0.084,west,2.7,No
2020/08/13,00:20,0.179,0.163,0.265,0.254,0.247,0.139,0.084,west-northwest,2.5,No
2020/08/13,00:30,0.177,0.163,0.265,0.252,0.248,0.139,0.084,west,2.3,No
2020/08/13,00:40,0.176,0.163,0.268,0.254,0.247,0.140,0.085,west-northwest,3.9,No
2020/08/13,00:50,0.177,0.160,0.270,0.257,0.247,0.140,0.085,northwest,2.3,No
2020/08/13,01:00,0.179,0.160,0.268,0.254,0.252,0.138,0.086,west-northwest,1.9,No
2020/08/13,01:10,0.178,0.163,0.265,0.254,0.252,0.138,0.084,west-northwest,0.9,No
2020/08/13,01:20,0.177,0.163,0.265,0.252,0.248,0.139,0.084,-,CALM,No
2020/08/13,01:30,0.177,0.163,0.264,0.254,0.249,0.140,0.084,west,1.2,No
2020/08/13,01:40,0.179,0.162,0.267,0.257,0.247,0.138,0.085,west,4.8,No
2020/08/13,01:50,0.180,0.161,0.269,0.256,0.246,0.139,0.085,west-southwest,5.2,No
2020/08/13,02:00,0.177,0.163,0.268,0.254,0.245,0.139,0.085,west,2.6,No
2020/08/13,02:10,0.178,0.164,0.267,0.254,0.249,0.140,0.084,west,1.2,No
2020/08/13,02:20,0.176,0.163,0.265,0.252,0.253,0.139,0.084,north-northeast,0.9,No
2020/08/13,02:30,0.179,0.162,0.265,0.256,0.249,0.139,0.085,-,CALM,No
2020/08/13,02:40,0.179,0.162,0.269,0.256,0.248,0.139,0.085,south-southeast,0.9,No
2020/08/13,02:50,0.178,0.164,0.269,0.253,0.247,0.140,0.084,south-southeast,0.8,No
2020/08/13,03:00,0.176,0.163,0.267,0.253,0.248,0.139,0.085,southeast,1.5,No
2020/08/13,03:10,0.180,0.162,0.265,0.254,0.251,0.139,0.084,southeast,1.5,No
2020/08/13,03:20,0.179,0.162,0.266,0.256,0.249,0.139,0.085,east-southeast,1.9,No
2020/08/13,03:30,0.178,0.163,0.270,0.255,0.249,0.139,0.085,southeast,2.2,No
2020/08/13,03:40,0.176,0.163,0.268,0.253,0.246,0.140,0.084,-,CALM,No
2020/08/13,03:50,0.179,0.162,0.266,0.254,0.248,0.138,0.086,north,2.3,No
2020/08/13,04:00,0.180,0.162,0.266,0.256,0.251,0.140,0.085,north-northwest,2.9,No
2020/08/13,04:10,0.176,0.163,0.269,0.255,0.250,0.140,0.085,-,CALM,No
2020/08/13,04:20,0.177,0.162,0.269,0.253,0.246,0.138,0.085,north,0.7,No
2020/08/13,04:30,0.179,0.163,0.265,0.254,0.249,0.139,0.085,north,0.9,No
2020/08/13,04:40,0.180,0.164,0.266,0.257,0.250,0.140,0.085,west-northwest,2.7,No
2020/08/13,04:50,0.177,0.163,0.268,0.254,0.249,0.139,0.084,west,1.6,No
2020/08/13,05:00,0.179,0.162,0.267,0.254,0.247,0.138,0.085,west-northwest,1.1,No
2020/08/13,05:10,0.178,0.164,0.265,0.255,0.249,0.140,0.085,west-northwest,1.2,No
2020/08/13,05:20,0.177,0.163,0.269,0.254,0.250,0.139,0.084,northwest,1.6,No
2020/08/13,05:30,0.178,0.162,0.269,0.253,0.248,0.139,0.085,northwest,2.1,No
2020/08/13,05:40,0.178,0.161,0.267,0.254,0.246,0.138,0.085,west-northwest,1.8,No
2020/08/13,05:50,0.178,0.163,0.265,0.255,0.247,0.139,0.085,west-northwest,3.9,No
2020/08/13,06:00,0.178,0.163,0.269,0.256,0.252,0.138,0.084,west-northwest,4.8,No
2020/08/13,06:10,0.178,0.162,0.269,0.254,0.250,0.139,0.084,north-northwest,2.2,No
2020/08/13,06:20,0.180,0.162,0.267,0.254,0.247,0.140,0.084,northwest,2.3,No
2020/08/13,06:30,0.179,0.163,0.265,0.256,0.247,0.138,0.084,northwest,0.6,No
2020/08/13,06:40,0.177,0.162,0.268,0.256,0.245,0.138,0.084,-,CALM,No
2020/08/13,06:50,0.177,0.162,0.270,0.254,0.246,0.139,0.084,-,CALM,No
2020/08/13,07:00,0.179,0.160,0.267,0.253,0.247,0.139,0.085,north-northwest,1.6,No
2020/08/13,07:10,0.179,0.163,0.266,0.253,0.251,0.139,0.084,north-northwest,1.5,No
2020/08/13,07:20,0.178,0.162,0.266,0.254,0.250,0.139,0.084,north-northwest,1.2,No
2020/08/13,07:30,0.177,0.162,0.267,0.254,0.249,0.139,0.085,northeast,1.2,No
2020/08/13,07:40,0.177,0.161,0.268,0.254,0.247,0.140,0.084,northeast,0.9,No
2020/08/13,07:50,0.176,0.162,0.267,0.254,0.247,0.139,0.085,west-northwest,0.8,No
2020/08/13,08:00,0.177,0.161,0.267,0.255,0.248,0.139,0.085,-,CALM,No
2020/08/13,08:10,0.177,0.162,0.268,0.255,0.249,0.138,0.085,west,2.8,No
2020/08/13,08:20,0.177,0.162,0.269,0.256,0.248,0.139,0.085,south,1.1,No
2020/08/13,08:30,0.178,0.162,0.269,0.257,0.250,0.139,0.085,south-southeast,1.7,No
2020/08/13,08:40,0.178,0.162,0.270,0.257,0.248,0.139,0.086,southeast,1.5,No
2020/08/13,08:50,0.179,0.162,0.270,0.256,0.251,0.139,0.086,south-southeast,0.9,No
2020/08/13,09:00,0.179,0.162,0.269,0.257,0.249,0.140,0.085,-,CALM,No
2020/08/13,09:10,0.180,0.163,0.270,0.258,0.249,0.139,0.085,-,CALM,No
2020/08/13,09:20,0.177,0.163,0.270,0.257,0.250,0.140,0.085,-,CALM,No
2020/08/13,09:30,0.178,0.163,0.270,0.257,0.250,0.140,0.085,-,CALM,No
2020/08/13,09:40,0.179,0.164,0.270,0.257,0.250,0.140,0.085,north-northwest,1.0,No
2020/08/13,09:50,0.179,0.165,0.269,0.257,0.251,0.140,0.085,west,5.6,No
2020/08/13,10:00,0.178,0.165,0.269,0.257,0.250,0.139,0.084,west,6.1,No
2020/08/13,10:10,0.179,0.164,0.270,0.258,0.251,0.139,0.085,west-southwest,4.3,No
2020/08/13,10:20,0.179,0.164,0.270,0.258,0.250,0.138,0.086,west-northwest,4.7,No
2020/08/13,10:30,0.178,0.164,0.269,0.259,0.251,0.138,0.085,west-southwest,0.9,No
2020/08/13,10:40,0.179,0.165,0.271,0.257,0.250,0.138,0.085,west-southwest,1.1,No
2020/08/13,10:50,0.180,0.165,0.271,0.259,0.249,0.137,0.084,south,2.1,No
2020/08/13,11:00,0.179,0.164,0.269,0.258,0.247,0.138,0.083,west-southwest,1.7,No
2020/08/13,11:10,0.178,0.165,0.268,0.257,0.245,0.138,0.084,south,0.7,No
2020/08/13,11:20,0.179,0.163,0.270,0.257,0.245,0.138,0.085,west-southwest,1.0,No
2020/08/13,11:30,0.180,0.164,0.270,0.258,0.244,0.138,0.085,-,CALM,No
2020/08/13,11:40,0.179,0.164,0.269,0.256,0.247,0.139,0.085,southwest,3.2,No
2020/08/13,11:50,0.179,0.163,0.267,0.255,0.247,0.138,0.085,south-southeast,1.8,No
2020/08/13,12:00,0.179,0.163,0.269,0.254,0.248,0.138,0.085,southeast,3.3,No
2020/08/13,12:10,0.178,0.163,0.267,0.256,0.249,0.139,0.084,east-southeast,0.6,No
2020/08/13,12:20,0.179,0.162,0.268,0.255,0.248,0.138,0.084,-,CALM,No
2020/08/13,12:30,0.178,0.163,0.269,0.257,0.250,0.138,0.084,south-southeast,2.8,No
2020/08/13,12:40,0.179,0.164,0.270,0.258,0.248,0.138,0.085,southeast,2.9,No
2020/08/13,12:50,0.179,0.163,0.268,0.258,0.250,0.138,0.085,south-southeast,3.4,No
2020/08/13,13:00,0.179,0.163,0.268,0.255,0.249,0.138,0.084,southeast,3.1,No
2020/08/13,13:10,0.178,0.164,0.267,0.255,0.247,0.139,0.085,south,3.0,No
2020/08/13,13:20,0.178,0.163,0.266,0.256,0.248,0.138,0.084,south-southeast,2.7,No
2020/08/13,13:30,0.178,0.162,0.267,0.254,0.249,0.139,0.085,south-southeast,3.5,No
2020/08/13,13:40,0.178,0.163,0.266,0.255,0.247,0.138,0.084,south-southeast,3.4,No
2020/08/13,13:50,0.178,0.162,0.268,0.255,0.248,0.138,0.085,south,3.9,No
2020/08/13,14:00,0.179,0.163,0.268,0.255,0.248,0.139,0.084,south,3.7,No
2020/08/13,14:10,0.180,0.163,0.269,0.256,0.249,0.138,0.084,south-southeast,2.8,No
2020/08/13,14:20,0.180,0.163,0.270,0.256,0.248,0.138,0.085,south-southeast,3.8,No
2020/08/13,14:30,0.178,0.162,0.268,0.256,0.247,0.137,0.085,south-southeast,3.9,No
2020/08/13,14:40,0.178,0.163,0.268,0.255,0.249,0.138,0.084,south-southeast,4.3,No
2020/08/13,14:50,0.180,0.163,0.268,0.256,0.247,0.138,0.085,south-southeast,3.8,No
2020/08/13,15:00,0.180,0.163,0.266,0.256,0.248,0.139,0.084,south-southeast,4.9,No
2020/08/13,15:10,0.180,0.163,0.269,0.255,0.249,0.138,0.085,south-southeast,4.8,No
2020/08/13,15:20,0.178,0.163,0.268,0.257,0.248,0.138,0.084,south-southeast,5.8,No
2020/08/13,15:30,0.177,0.163,0.269,0.256,0.248,0.139,0.084,south-southeast,3.5,No
2020/08/13,15:40,0.178,0.163,0.271,0.257,0.247,0.139,0.084,south-southeast,5.2,No
2020/08/13,15:50,0.179,0.163,0.269,0.256,0.245,0.138,0.084,south-southeast,5.1,No
2020/08/13,16:00,0.180,0.163,0.269,0.254,0.247,0.138,0.085,southeast,3.9,No
2020/08/13,16:10,0.178,0.163,0.268,0.255,0.248,0.139,0.085,north-northeast,0.8,No
2020/08/13,16:20,0.179,0.163,0.267,0.254,0.246,0.139,0.085,northeast,0.7,No
2020/08/13,16:30,0.178,0.162,0.266,0.253,0.246,0.140,0.084,south,0.6,No
2020/08/13,16:40,0.179,0.162,0.266,0.256,0.247,0.138,0.085,southeast,1.2,No
2020/08/13,16:50,0.177,0.162,0.267,0.254,0.247,0.139,0.085,east-northeast,1.5,No
2020/08/13,17:00,0.178,0.162,0.267,0.255,0.247,0.139,0.085,east-southeast,1.8,No
2020/08/13,17:10,0.178,0.163,0.268,0.257,0.248,0.139,0.085,east,1.0,No
2020/08/13,17:20,0.179,0.165,0.271,0.259,0.249,0.139,0.085,east,0.6,No
2020/08/13,17:30,0.180,0.165,0.272,0.259,0.247,0.139,0.085,-,CALM,No
2020/08/13,17:40,0.180,0.163,0.269,0.256,0.249,0.140,0.086,east,0.6,No
2020/08/13,17:50,0.179,0.162,0.269,0.256,0.248,0.140,0.085,south-southeast,0.8,No
2020/08/13,18:00,0.178,0.162,0.268,0.254,0.248,0.140,0.085,southeast,1.1,No
2020/08/13,18:10,0.178,0.164,0.267,0.258,0.249,0.139,0.084,south-southeast,1.0,No
2020/08/13,18:20,0.179,0.164,0.271,0.258,0.247,0.140,0.085,-,CALM,No
2020/08/13,18:30,0.180,0.163,0.272,0.257,0.249,0.140,0.086,-,CALM,No
2020/08/13,18:40,0.179,0.162,0.270,0.255,0.251,0.141,0.085,north-northwest,1.2,No
2020/08/13,18:50,0.178,0.162,0.269,0.255,0.251,0.139,0.084,north,1.3,No
2020/08/13,19:00,0.178,0.164,0.268,0.258,0.249,0.140,0.084,north,1.5,No
2020/08/13,19:10,0.181,0.164,0.269,0.258,0.247,0.140,0.086,north,1.3,No
2020/08/13,19:20,0.179,0.163,0.271,0.257,0.250,0.141,0.086,northeast,1.4,No
2020/08/13,19:30,0.177,0.162,0.269,0.254,0.251,0.140,0.085,east-northeast,0.8,No
2020/08/13,19:40,0.177,0.163,0.267,0.258,0.250,0.139,0.084,north-northeast,1.6,No
2020/08/13,19:50,0.180,0.164,0.268,0.259,0.248,0.140,0.086,-,CALM,No
2020/08/13,20:00,0.180,0.162,0.272,0.256,0.248,0.141,0.085,northwest,0.8,No
2020/08/13,20:10,0.178,0.163,0.269,0.255,0.252,0.139,0.085,north,0.6,No
2020/08/13,20:20,0.178,0.165,0.268,0.258,0.250,0.140,0.084,north-northwest,1.0,No
2020/08/13,20:30,0.180,0.164,0.271,0.259,0.246,0.140,0.085,-,CALM,No
2020/08/13,20:40,0.179,0.161,0.270,0.257,0.249,0.141,0.084,west-northwest,0.6,No
2020/08/13,20:50,0.178,0.164,0.270,0.255,0.252,0.139,0.085,west-northwest,1.2,No
2020/08/13,21:00,0.179,0.163,0.268,0.259,0.249,0.141,0.086,west,1.8,No
2020/08/13,21:10,0.181,0.163,0.272,0.256,0.247,0.140,0.085,west-northwest,1.5,No
2020/08/13,21:20,0.179,0.164,0.271,0.255,0.249,0.139,0.085,west-northwest,1.7,No
2020/08/13,21:30,0.177,0.165,0.268,0.259,0.252,0.139,0.086,west-northwest,1.9,No
2020/08/13,21:40,0.181,0.164,0.270,0.258,0.249,0.141,0.085,northwest,1.1,No
2020/08/13,21:50,0.179,0.163,0.272,0.255,0.247,0.140,0.085,west,0.9,No
2020/08/13,22:00,0.178,0.165,0.270,0.257,0.251,0.139,0.085,west,1.0,No
2020/08/13,22:10,0.180,0.163,0.268,0.259,0.252,0.141,0.086,west-northwest,2.2,No
2020/08/13,22:20,0.180,0.163,0.270,0.255,0.248,0.140,0.085,west-northwest,1.4,No
2020/08/13,22:30,0.179,0.165,0.270,0.255,0.248,0.140,0.085,west-northwest,1.4,No
2020/08/13,22:40,0.179,0.164,0.268,0.259,0.252,0.140,0.086,west-northwest,1.0,No
2020/08/13,22:50,0.182,0.162,0.271,0.257,0.250,0.141,0.086,northwest,1.0,No
2020/08/13,23:00,0.181,0.164,0.270,0.255,0.247,0.140,0.086,north-northwest,1.2,No
2020/08/13,23:10,0.179,0.164,0.269,0.258,0.250,0.140,0.085,-,CALM,No
2020/08/13,23:20,0.179,0.162,0.271,0.258,0.252,0.140,0.085,-,CALM,No
2020/08/13,23:30,0.179,0.164,0.271,0.255,0.249,0.140,0.086,west-northwest,0.8,No
2020/08/13,23:40,0.179,0.165,0.270,0.257,0.249,0.140,0.085,northwest,1.7,No
2020/08/13,23:50,0.180,0.164,0.270,0.259,0.252,0.141,0.086,-,CALM,No
